Michibiki-4

operational
NORAD ID: 42965 Int'l Des: 2017-062 Owner: NUSS/JAXA Country: J
HEOGSO

Über Michibiki-4

Beschreibung wird geladen...

Live-Position

3D-Globus wird geladen...

Nächste Überflüge

Höhenverlauf

Altitude vs Time

uPlot chart will show altitude changes over time

Zweizeiliger Elementsatz

1 42965U 17062A 25277.52558284 -.00000292 00000-0 00000+0 0 9997
2 42965 40.2664 346.7617 0751863 269.8626 85.5461 1.00272384 29246
Epoch: 4. Okt. 2025 • Age: 24 hours

Aktueller Status

Höhe 35859.9 km
Geschwindigkeit 3.07 km/s
Subsatellitenpunkt 3.43°N, 146.78°E
Startdatum 9. Okt. 2017
Alter 7.9 years
Typ other

Technische Details

Klassifizierung Payload
Masse 4020.00 kg
Trockenmasse 1802.00 kg
Gesamtmasse 4020.00 kg
Länge 6.20 m
Durchmesser 2.90 m
Spannweite 25.30 m
Form Box + 2 Pan
Hersteller MELCO
Bus-Typ QZSS
Phasenstatus In Orbit
Besitzer/Staat NUSS/JAXA/J

Große Konstellationen

Loading constellations...